Date String (YYYY-MM-DD hh:mm:ss) UTC,Instrument flags,absolute air pressure of the measurement (hPa),sample flow rate (lpm),inlet stack bypass flow (lpm),air temperature of the measurement (°C),ambient temperature measured by the external sensor (°C),aerosol sample conditioner tube jacket temperature (°C),OPC LED temperature (°C),internal box temperature (°C),relative humidity of the measurement (%),span deviation,mass concentration of particles derived from Lorenz-Mie calculation of OPC scattering (μg/m³),mass concentration of particles derived from Lorenz-Mie calculation of OPC scattering (μg/m³),mass concentration of particles derived from Lorenz-Mie calculation of OPC scattering (μg/m³)
DateTimeUTC,F1_M11,P_M11,Q1_M11,Q2_M11,T1_M11,T2_M11,T3_M11,T4_M11,T5_M11,U1_M11,ZSPAN_M11,X2_M11,X0_M11,X1_M11
2023-06-25 13:00:00,SystemResetWarning,0835.8,5.00,000.00,030.6,029.0,000.0,039.1,032.0,23.9,0000.0,0003.24,0009.44,0002.02
2023-06-25 13:01:00,SystemResetWarning,0835.8,5.00,000.00,030.6,029.0,000.0,039.1,032.0,24.3,0000.0,0003.20,0010.28,0002.00
2023-06-25 13:02:00,SystemResetWarning,0835.8,5.00,000.00,030.6,029.0,000.0,039.1,032.1,24.4,0000.0,0003.19,0011.05,0002.01
2023-06-25 13:03:00,SystemResetWarning,0835.8,4.98,000.00,030.6,028.0,000.0,039.1,032.2,24.2,0000.0,0003.20,0011.34,0002.01
2023-06-25 13:04:00,SystemResetWarning,0835.8,5.00,000.00,030.6,025.6,000.0,039.0,032.1,23.8,0000.0,0003.21,0012.09,0001.99
2023-06-25 13:05:00,SystemResetWarning,0835.8,5.01,000.00,030.6,024.8,000.0,038.9,032.0,23.5,0000.0,0003.25,0011.97,0001.97
2023-06-25 13:06:00,SystemResetWarning,0835.8,5.01,000.00,030.4,025.2,000.0,038.9,031.6,24.1,0000.0,0003.24,0011.23,0001.96
2023-06-25 13:07:00,SystemResetWarning,0835.8,5.00,000.00,030.3,025.6,000.0,038.9,031.5,24.1,0000.0,0003.24,0010.88,0001.97
2023-06-25 13:08:00,SystemResetWarning,0835.8,5.00,000.00,030.3,026.1,000.0,038.9,031.4,24.4,0000.0,0003.21,0009.69,0001.98
2023-06-25 13:09:00,SystemResetWarning,0835.8,4.99,000.00,030.2,026.5,000.0,038.9,031.4,24.6,0000.0,0003.23,0009.74,0001.97
2023-06-25 13:10:00,SystemResetWarning,0835.7,5.00,000.00,030.2,026.9,000.0,038.9,031.4,24.7,0000.0,0003.27,0009.76,0001.96
2023-06-25 13:11:00,SystemResetWarning,0835.8,4.99,000.00,030.2,027.2,000.0,038.8,031.4,24.9,0000.0,0003.28,0010.06,0001.96
2023-06-25 13:12:00,SystemResetWarning,0835.8,4.99,000.00,030.1,027.5,000.0,038.8,031.4,24.4,0000.0,0003.33,0009.69,0001.95
2023-06-25 13:13:00,SystemResetWarning,0835.8,5.01,000.00,030.1,027.7,000.0,038.8,031.5,24.4,0000.0,0003.34,0008.86,0001.92
2023-06-25 13:14:00,SystemResetWarning,0835.8,5.01,000.00,030.1,027.9,000.0,038.8,031.5,24.6,0000.0,0003.30,0008.63,0001.90
2023-06-25 13:15:00,SystemResetWarning,0835.8,4.99,000.00,030.1,028.0,000.0,038.8,031.5,24.6,0000.0,0003.31,0008.40,0001.90
2023-06-25 13:16:00,SystemResetWarning,0835.8,4.99,000.00,030.1,028.1,000.0,038.8,031.5,24.6,0000.0,0003.26,0008.33,0001.88
2023-06-25 13:17:00,SystemResetWarning,0835.8,5.00,000.00,030.1,028.2,000.0,038.8,031.6,24.7,0000.0,0003.25,0008.34,0001.86
2023-06-25 13:18:00,SystemResetWarning,0835.8,5.00,000.00,030.2,028.3,000.0,038.8,031.6,24.9,0000.0,0003.22,0008.25,0001.84
2023-06-25 13:19:00,SystemResetWarning,0835.8,5.00,000.00,030.2,028.4,000.0,038.8,031.6,25.1,0000.0,0003.18,0008.18,0001.80
2023-06-25 13:20:00,SystemResetWarning,0835.8,5.00,000.00,030.2,028.4,000.0,038.8,031.7,25.4,0000.0,0003.15,0008.38,0001.79
2023-06-25 13:21:00,SystemResetWarning,0835.8,5.01,000.00,030.2,028.5,000.0,038.8,031.7,25.0,0000.0,0003.12,0008.72,0001.79
2023-06-25 13:22:00,SystemResetWarning,0835.8,5.00,000.00,030.2,028.5,000.0,038.8,031.7,24.7,0000.0,0003.10,0008.62,0001.82
2023-06-25 13:23:00,SystemResetWarning,0835.8,5.00,000.00,030.2,028.6,000.0,038.8,031.7,25.1,0000.0,0003.08,0008.58,0001.83
2023-06-25 13:24:00,SystemResetWarning,0835.8,4.99,000.00,030.2,028.6,000.0,038.8,031.7,25.1,0000.0,0003.08,0008.94,0001.85
2023-06-25 13:25:00,SystemResetWarning,0835.8,4.99,000.00,030.3,028.7,000.0,038.8,031.8,25.2,0000.0,0003.11,0009.43,0001.88
2023-06-25 13:26:00,SystemResetWarning,0835.8,4.99,000.00,030.3,028.7,000.0,038.8,031.7,25.7,0000.0,0003.05,0009.41,0001.88
2023-06-25 13:27:00,SystemResetWarning,0835.8,5.01,000.00,030.3,028.7,000.0,038.8,031.8,25.8,0000.0,0003.02,0009.13,0001.88
2023-06-25 13:28:00,SystemResetWarning,0835.8,5.01,000.00,030.3,028.7,000.0,038.8,031.8,25.7,0000.0,0003.03,0009.18,0001.91
2023-06-25 13:29:00,SystemResetWarning,0835.8,5.00,000.00,030.3,028.8,000.0,038.8,031.8,26.3,0000.0,0003.07,0009.35,0001.93
2023-06-25 13:30:00,SystemResetWarning,0835.8,5.01,000.00,030.3,028.8,000.0,038.8,031.8,25.6,0000.0,0003.12,0010.13,0001.96
2023-06-25 13:31:00,SystemResetWarning,0835.8,4.99,000.00,030.4,028.8,000.0,038.9,031.9,25.1,0000.0,0003.15,0010.56,0001.98
2023-06-25 13:32:00,SystemResetWarning,0835.8,4.99,000.00,030.4,028.9,000.0,038.9,031.9,25.1,0000.0,0003.19,0010.57,0002.01
2023-06-25 13:33:00,SystemResetWarning,0835.8,4.99,000.00,030.4,028.9,000.0,038.9,031.8,25.1,0000.0,0003.20,0010.56,0002.02
2023-06-25 13:34:00,SystemResetWarning,0835.8,5.00,000.00,030.4,028.9,000.0,038.9,031.9,25.0,0000.0,0003.16,0010.03,0002.02
2023-06-25 13:35:00,SystemResetWarning,0835.8,5.01,000.00,030.4,028.9,000.0,038.9,031.9,24.4,0000.0,0003.15,0009.58,0002.01
2023-06-25 13:36:00,SystemResetWarning,0835.8,5.00,000.00,030.4,028.9,000.0,038.9,031.9,24.5,0000.0,0003.13,0009.19,0001.98
2023-06-25 13:37:00,SystemResetWarning,0835.8,4.99,000.00,030.4,028.1,000.0,038.9,032.0,24.4,0000.0,0003.09,0008.50,0001.95
2023-06-25 13:38:00,SystemResetWarning,0835.8,5.00,000.00,030.4,025.8,000.0,038.8,031.9,24.9,0000.0,0003.09,0008.81,0001.95
2023-06-25 13:39:00,SystemResetWarning,0835.7,5.01,000.00,030.4,024.9,000.0,038.8,031.9,24.5,0000.0,0003.10,0008.79,0001.93
2023-06-25 13:40:00,SystemResetWarning,0835.7,5.01,000.00,030.3,025.2,000.0,038.7,031.5,24.8,0000.0,0003.13,0008.84,0001.92
2023-06-25 13:41:00,SystemResetWarning,0835.8,4.99,000.00,030.2,025.7,000.0,038.7,031.4,24.9,0000.0,0003.12,0008.41,0001.90
2023-06-25 13:42:00,SystemResetWarning,0835.7,5.00,000.00,030.1,026.1,000.0,038.7,031.4,25.4,0000.0,0003.12,0007.65,0001.88
2023-06-25 13:43:00,SystemResetWarning,0835.7,5.00,000.00,030.1,026.6,000.0,038.7,031.4,26.1,0000.0,0003.09,0007.35,0001.86
2023-06-25 13:44:00,SystemResetWarning,0835.8,4.98,000.00,030.1,026.9,000.0,038.7,031.4,26.2,0000.0,0003.06,0007.30,0001.83
2023-06-25 13:45:00,SystemResetWarning,0835.8,5.00,000.00,030.1,027.2,000.0,038.7,031.4,26.1,0000.0,0003.11,0007.43,0001.82
2023-06-25 13:46:00,SystemResetWarning,0835.8,5.01,000.00,030.0,027.5,000.0,038.7,031.4,25.8,0000.0,0003.12,0008.00,0001.83
2023-06-25 13:47:00,SystemResetWarning,0835.8,5.00,000.00,030.0,027.7,000.0,038.7,031.4,26.2,0000.0,0003.12,0008.71,0001.85
2023-06-25 13:48:00,SystemResetWarning,0835.7,4.99,000.00,030.0,027.9,000.0,038.7,031.4,26.5,0000.0,0003.16,0008.75,0001.90
2023-06-25 13:49:00,SystemResetWarning,0835.7,5.00,000.00,030.1,028.0,000.0,038.7,031.5,26.8,0000.0,0003.19,0008.47,0001.92
2023-06-25 13:50:00,SystemResetWarning,0835.7,5.00,000.00,030.1,028.1,000.0,038.7,031.5,27.1,0000.0,0003.19,0008.41,0001.96
2023-06-25 13:51:00,SystemResetWarning,0835.7,5.00,000.00,030.1,028.2,000.0,038.7,031.5,27.9,0000.0,0003.20,0008.40,0001.98
2023-06-25 13:52:00,SystemResetWarning,0835.7,5.00,000.00,030.1,028.3,000.0,038.7,031.5,28.2,0000.0,0003.22,0008.91,0002.00
2023-06-25 13:53:00,SystemResetWarning,0835.6,5.00,000.00,030.1,028.4,000.0,038.7,031.5,28.1,0000.0,0003.24,0009.44,0002.02
2023-06-25 13:54:00,SystemResetWarning,0835.7,5.00,000.00,030.1,028.5,000.0,038.7,031.5,27.7,0000.0,0003.25,0010.28,0002.03
2023-06-25 13:55:00,SystemResetWarning,0835.7,5.01,000.00,030.1,028.5,000.0,038.7,031.6,27.6,0000.0,0003.27,0010.78,0002.07
2023-06-25 13:56:00,SystemResetWarning,0835.8,5.00,000.00,030.1,028.6,000.0,038.7,031.7,28.0,0000.0,0003.27,0010.92,0002.11
2023-06-25 13:57:00,SystemResetWarning,0835.8,4.99,000.00,030.2,028.6,000.0,038.7,031.7,27.5,0000.0,0003.26,0010.56,0002.16
2023-06-25 13:58:00,SystemResetWarning,0835.8,5.00,000.00,030.2,028.7,000.0,038.7,031.7,27.3,0000.0,0003.31,0010.08,0002.20
2023-06-25 13:59:00,SystemResetWarning,0835.7,5.00,000.00,030.2,028.7,000.0,038.7,031.7,27.7,0000.0,0003.36,0010.14,0002.26
